[[{"header":{"parameterUnit":"m.s-1","parameterCategory":1,"la1":30.2991,"la2":30.254,"lo1":-89.0895,"lo2":-89.0444,"dy":0.0017,"dx":0.0017,"nx":28,"ny":28,"refTime":"2025-08-21T21:00:00:Z","depth":0,"parameterNumber":2,"parameterNumberName":"U-component_of_WINDS"},"data":[0,0,0,0,0,0,0,0,0,0,0,0,0,0,0,0,0,0,0,0,0,0,0,0,0,0,0,0,0,0,0,0,0,0,0,0,0,0,0,0,0,0,0,0,0,0,0,0,0,0,0,0,0,0,0,0,0,0,0.6588,0.6588,0,0.6616,0.6616,0.6617,0.6622,0.6622,0.6622,0.6622,0.6653,0.6654,0.6655,0,0,0,0,0,0,0,0,0,0,0,0,0,0.6539,0.654,0.6587,0.6588,0.6588,0.6616,0.6616,0.6617,0.6622,0.6622,0.6622,0.6622,0.6652,0.6654,0.6655,0,0,0,0,0,0,0,0,0,0,0,0,0,0.6563,0.6541,0.6587,0.6594,0.6595,0.6616,0.6616,0.6617,0.6623,0.6622,0.6622,0.6622,0.6652,0.6653,0.6655,0.6671,0,0,0.666,0.666,0,0,0,0,0,0,0,0,0.6562,0.6565,0.6593,0.6594,0.6595,0.6615,0.6611,0.6635,0.6623,0.6612,0.6622,0.6621,0.6641,0.6643,0.6649,0.6673,0.6674,0.666,0.6661,0.6661,0.6662,0,0,0,0,0,0,0,0.656,0.6564,0.6599,0.6593,0.6595,0.6597,0.66,0.6615,0.6628,0.6613,0.6614,0.6617,0.6641,0.6648,0.665,0.6675,0.666,0.6661,0.6662,0.6663,0.6713,0.6714,0,0,0,0,0,0,0.6557,0.6563,0.6598,0.66,0.6577,0.6598,0.6601,0.6609,0.6628,0.663,0.6617,0.6617,0.6645,0.6648,0.6651,0.6672,0.6661,0.6663,0.6664,0.6713,0.6713,0.6714,0,0,0,0,0,0,0.6556,0.656,0.6597,0.6581,0.6586,0.6599,0.6608,0.661,0.6617,0.6631,0.6633,0.6621,0.6645,0.6649,0.6666,0.6673,0.6664,0.6665,0.6712,0.6713,0.6714,0.6713,0,0,0,0,0,0,0.6555,0.656,0.6566,0.6581,0.6587,0.6611,0.6608,0.6611,0.6619,0.6619,0.6636,0.6638,0.6645,0.6664,0.6668,0.6675,0.6666,0.6712,0.6713,0.6713,0.6713,0.6714,0.6715,0,0,0,0,0,0.6553,0.6565,0.6566,0.657,0.6594,0.6611,0.6615,0.6622,0.6619,0.6626,0.6635,0.6637,0.6671,0.6666,0.667,0.6678,0.6712,0.6712,0.6713,0.6712,0.6714,0.6715,0,0,0,0,0,0,0.6551,0.6567,0.6569,0.6586,0.6597,0.6612,0.6621,0.6623,0.6636,0.6635,0.6645,0.6648,0.6665,0.6673,0.6666,0.6695,0.6691,0.6693,0.6689,0.669,0.6691,0.6689,0.6667,0,0,0,0,0,0.6552,0.6564,0.6578,0.6591,0.6597,0.6608,0.6615,0.662,0.6632,0.6637,0.6648,0.666,0.6674,0.6682,0.6696,0.6714,0.6718,0.6721,0.6722,0.6723,0.6725,0.6735,0.6737,0.6717,0.6717,0.6717,0,0,0.6555,0.6566,0.6572,0.6591,0.66,0.6613,0.6612,0.6625,0.6635,0.664,0.6656,0.6665,0.6679,0.6697,0.6705,0.6704,0.6731,0.6724,0.6725,0.6726,0.6736,0.6738,0.674,0.6718,0.6717,0.6717,0,0,0.6567,0.6576,0.6589,0.6598,0.6612,0.6619,0.6622,0.6637,0.6642,0.6659,0.6663,0.6675,0.6698,0.6708,0.6716,0.6732,0.6735,0.6736,0.6741,0.6752,0.6753,0.6755,0.6761,0.6763,0.6737,0.6737,0.6737,0,0.657,0.6588,0.6595,0.6608,0.6616,0.6621,0.6634,0.6643,0.666,0.6666,0.6664,0.6693,0.6703,0.6724,0.6728,0.6734,0.6738,0.6734,0.6752,0.6754,0.6755,0.6761,0.6764,0.6737,0.6737,0.6737,0.6737,0,0.6591,0.6603,0.6612,0.6628,0.6638,0.6651,0.666,0.6669,0.6673,0.668,0.6697,0.6709,0.6725,0.673,0.6734,0.6752,0.675,0.675,0.6747,0.6757,0.6763,0.6765,0.6738,0.6738,0.6738,0.6737,0,0,0.6603,0.6622,0.6625,0.6633,0.6649,0.6659,0.6672,0.6687,0.6695,0.6707,0.6719,0.6738,0.6738,0.6747,0.6752,0.6761,0.6774,0.676,0.676,0.6763,0.6794,0.6794,0.6797,0.6775,0.6776,0.6776,0.6793,0,0.6617,0.6641,0.6647,0.6667,0.668,0.6684,0.6696,0.6707,0.6714,0.6726,0.6734,0.6748,0.6746,0.6752,0.6761,0.677,0.678,0.6769,0.6787,0.6788,0.6784,0.68,0.68,0.6816,0.6795,0.6796,0.6796,0,0.6637,0.6649,0.667,0.6684,0.669,0.67,0.6715,0.6726,0.6738,0.6743,0.6753,0.6758,0.6772,0.6768,0.6789,0.6781,0.6789,0.6795,0.6795,0.6798,0.6793,0.6804,0.6821,0.6823,0.6799,0.6799,0.6799,0,0.6645,0.6666,0.6681,0.6688,0.6704,0.6712,0.6719,0.6731,0.674,0.6753,0.6759,0.6773,0.6781,0.6792,0.6801,0.6796,0.6821,0.6817,0.6826,0.6826,0.6831,0.6831,0.6851,0.6835,0.6835,0.6835,0.6835,0,0.6661,0.6674,0.6685,0.6695,0.6709,0.6717,0.6732,0.6739,0.675,0.6762,0.6766,0.6777,0.6787,0.68,0.6807,0.6823,0.6827,0.6831,0.6833,0.6831,0.6831,0.6837,0.6837,0.6836,0.6836,0.6836,0.6835,0,0.6672,0.668,0.6697,0.6711,0.6715,0.6725,0.6738,0.6748,0.6755,0.6769,0.6773,0.6785,0.68,0.6809,0.6828,0.6833,0.6851,0.6852,0.6847,0.6848,0.6856,0.6855,0.6881,0.6885,0.6866,0.6866,0.6867,0,0.6681,0.6691,0.6707,0.6714,0.6722,0.6734,0.6743,0.6751,0.676,0.6775,0.6783,0.6798,0.6811,0.6834,0.6845,0.686,0.6862,0.6869,0.6864,0.6862,0.6862,0.6862,0.6863,0.6871,0.6871,0.6871,0.6871,0,0.6698,0.6702,0.6714,0.6727,0.6737,0.6749,0.676,0.6766,0.6776,0.6786,0.6801,0.681,0.683,0.6845,0.686,0.6869,0.6872,0.6873,0.6876,0.6874,0.6871,0.6874,0.685,0.6872,0.6872,0.6872,0.6872,0.6872,0.671,0.6719,0.6731,0.6744,0.6753,0.6764,0.6774,0.6782,0.6794,0.681,0.6814,0.683,0.6843,0.6864,0.6873,0.6886,0.6885,0.6889,0.689,0.6891,0.6891,0.6868,0.6888,0.6888,0.6888,0.6888,0.6888,0,0.6727,0.6735,0.6747,0.6763,0.6773,0.6774,0.6787,0.6796,0.681,0.6821,0.6833,0.6851,0.6865,0.6877,0.6892,0.69,0.6902,0.6904,0.6904,0.6906,0.6891,0.6887,0.6902,0.6902,0.6902,0.6902,0.6902,0.6902,0.6738,0.6754,0.6759,0.6779,0.6787,0.6802,0.6809,0.6819,0.6828,0.6847,0.6859,0.6866,0.6878,0.6894,0.6908,0.6911,0.6917,0.6919,0.6922,0.6908,0.6907,0.6905,0.6902,0.692,0.692,0.6936,0.6936,0.6936]},{"header":{"parameterUnit":"m.s-1","parameterCategory":1,"la1":30.2991,"la2":30.254,"lo1":-89.0895,"lo2":-89.0444,"dy":0.0017,"dx":0.0017,"nx":28,"ny":28,"refTime":"2025-08-21T21:00:00:Z","depth":0,"parameterNumber":3,"parameterNumberName":"V-component_of_WINDS"},"data":[0,0,0,0,0,0,0,0,0,0,0,0,0,0,0,0,0,0,0,0,0,0,0,0,0,0,0,0,0,0,0,0,0,0,0,0,0,0,0,0,0,0,0,0,0,0,0,0,0,0,0,0,0,0,0,0,0,0,1.1894,1.1895,0,1.195,1.195,1.1951,1.1931,1.193,1.1929,1.1928,1.1986,1.1989,1.1992,0,0,0,0,0,0,0,0,0,0,0,0,0,1.1772,1.1774,1.1894,1.1895,1.1895,1.1949,1.195,1.1951,1.1932,1.193,1.1929,1.1927,1.1985,1.1989,1.1992,0,0,0,0,0,0,0,0,0,0,0,0,0,1.1826,1.1775,1.1894,1.1892,1.1893,1.1949,1.195,1.1951,1.1932,1.193,1.1928,1.1927,1.1984,1.1988,1.1992,1.2054,0,0,1.2005,1.2006,0,0,0,0,0,0,0,0,1.1823,1.183,1.1892,1.1892,1.1893,1.1932,1.1929,1.1986,1.1932,1.1917,1.1928,1.1926,1.197,1.1975,1.1989,1.2057,1.206,1.2005,1.2008,1.2009,1.201,0,0,0,0,0,0,0,1.1819,1.1828,1.1916,1.1893,1.1893,1.1889,1.1895,1.1939,1.1953,1.1918,1.1917,1.1924,1.197,1.1986,1.1991,1.2061,1.2005,1.2009,1.2011,1.2013,1.2182,1.2184,0,0,0,0,0,0,1.1815,1.1825,1.1914,1.1918,1.1853,1.1893,1.1899,1.1921,1.1953,1.1956,1.1925,1.1923,1.1979,1.1986,1.1993,1.2068,1.2009,1.2013,1.2015,1.218,1.2182,1.2185,0,0,0,0,0,0,1.1812,1.1823,1.1912,1.1871,1.1882,1.1897,1.1922,1.1923,1.1939,1.1958,1.196,1.1939,1.1978,1.1987,1.2039,1.2069,1.2015,1.2019,1.2178,1.2181,1.2184,1.2218,0,0,0,0,0,0,1.1809,1.1822,1.1846,1.1872,1.1884,1.1957,1.1924,1.1926,1.1946,1.1943,1.1971,1.1974,1.1977,1.2033,1.2043,1.2074,1.2022,1.2175,1.2179,1.2183,1.2214,1.2222,1.2228,0,0,0,0,0,1.1805,1.1854,1.1847,1.1858,1.1914,1.1959,1.1966,1.1969,1.1948,1.1972,1.1984,1.1973,1.2064,1.2039,1.205,1.2082,1.2173,1.2178,1.2182,1.2211,1.222,1.2228,0,0,0,0,0,0,1.1832,1.1857,1.185,1.1909,1.1932,1.1956,1.1986,1.1978,1.2008,1.2004,1.2006,1.2013,1.2067,1.2079,1.2051,1.2144,1.2116,1.2123,1.2134,1.2143,1.215,1.2146,1.2025,0,0,0,0,0,1.1844,1.1879,1.1899,1.1949,1.1961,1.1971,1.1991,1.1991,1.2015,1.2025,1.2041,1.2065,1.2099,1.2121,1.2154,1.2216,1.2222,1.2243,1.2251,1.2256,1.2263,1.2297,1.2307,1.22,1.22,1.22,0,0,1.1871,1.1889,1.1911,1.1955,1.1973,1.2008,1.198,1.2019,1.2046,1.2031,1.2081,1.2094,1.2121,1.2178,1.2204,1.2191,1.2293,1.2262,1.2267,1.227,1.2302,1.2313,1.2321,1.2203,1.2203,1.2202,0,0,1.1939,1.1955,1.1999,1.2017,1.2044,1.2051,1.2061,1.2086,1.2094,1.2144,1.2134,1.2166,1.2224,1.2244,1.2262,1.2336,1.2327,1.2346,1.2384,1.2417,1.2425,1.2432,1.2459,1.2469,1.2352,1.2352,1.2352,0,1.1969,1.2022,1.2022,1.2062,1.2082,1.2069,1.2114,1.2131,1.2168,1.2182,1.2166,1.2239,1.2256,1.2318,1.2336,1.2351,1.2363,1.2343,1.2424,1.2431,1.2438,1.2464,1.2474,1.2354,1.2354,1.2354,1.2354,0,1.2058,1.2095,1.2127,1.2162,1.2185,1.2227,1.2234,1.2257,1.2254,1.2263,1.2314,1.2334,1.2371,1.2385,1.2383,1.2447,1.2438,1.2423,1.2394,1.245,1.2475,1.2484,1.2358,1.2357,1.2356,1.2356,0,0,1.2145,1.2179,1.2191,1.2206,1.2235,1.2264,1.2305,1.234,1.236,1.2385,1.242,1.247,1.2456,1.2476,1.2476,1.2505,1.2563,1.2486,1.2487,1.25,1.2634,1.2646,1.2657,1.2556,1.2558,1.256,1.2632,0,1.2215,1.2287,1.2288,1.2355,1.2389,1.2377,1.2413,1.2435,1.2443,1.2474,1.2484,1.2519,1.2498,1.251,1.2538,1.255,1.259,1.2544,1.259,1.2591,1.2584,1.267,1.2683,1.275,1.2642,1.2643,1.2644,0,1.2306,1.2334,1.2404,1.2427,1.2442,1.2474,1.2506,1.2535,1.2559,1.2564,1.2586,1.2581,1.2624,1.2593,1.2652,1.2621,1.264,1.2648,1.2651,1.2656,1.2622,1.2678,1.2772,1.2782,1.2659,1.2658,1.2657,0,1.2364,1.2418,1.2467,1.2481,1.2509,1.2532,1.2545,1.2567,1.2588,1.2616,1.263,1.2662,1.268,1.2706,1.2711,1.2688,1.277,1.274,1.2775,1.2775,1.2794,1.2793,1.2892,1.2804,1.2804,1.2804,1.2804,0,1.2442,1.2485,1.2493,1.2523,1.2571,1.2572,1.262,1.2631,1.2651,1.2683,1.2675,1.2705,1.2709,1.2741,1.2745,1.2793,1.2801,1.2806,1.2807,1.2808,1.2807,1.282,1.2816,1.2807,1.2806,1.2805,1.2805,0,1.2515,1.2521,1.2574,1.2596,1.2603,1.2637,1.2656,1.2685,1.2693,1.2734,1.2743,1.2756,1.2792,1.2799,1.2843,1.2845,1.2903,1.2899,1.2895,1.2895,1.293,1.2927,1.3042,1.3058,1.2959,1.296,1.2961,0,1.2565,1.2598,1.2623,1.2644,1.2658,1.2692,1.2713,1.2715,1.2737,1.2767,1.2792,1.2828,1.2857,1.2916,1.2929,1.2962,1.2959,1.2997,1.2964,1.2964,1.296,1.2959,1.2962,1.3004,1.3005,1.3006,1.3007,0,1.2653,1.2655,1.2685,1.2717,1.2742,1.2767,1.2791,1.2808,1.2813,1.2839,1.2876,1.2898,1.2942,1.2978,1.3011,1.3025,1.3017,1.3017,1.3027,1.3028,1.3025,1.3028,1.2913,1.3014,1.3014,1.3013,1.3013,1.3012,1.2717,1.2745,1.2768,1.2802,1.282,1.2842,1.287,1.2881,1.2912,1.2947,1.2947,1.2988,1.3011,1.3054,1.307,1.3102,1.309,1.3105,1.3108,1.3112,1.3116,1.3019,1.3108,1.3108,1.3108,1.3107,1.3107,0,1.2805,1.2819,1.285,1.2883,1.291,1.2899,1.2925,1.2948,1.2984,1.3006,1.3034,1.3077,1.3111,1.3127,1.3161,1.3184,1.3181,1.3193,1.3191,1.3195,1.3124,1.3112,1.3194,1.3194,1.3194,1.3194,1.3194,1.3194,1.2854,1.2902,1.2907,1.2963,1.2977,1.3016,1.3032,1.3053,1.307,1.3118,1.3146,1.3156,1.3175,1.321,1.3242,1.3245,1.3259,1.3272,1.3274,1.3208,1.32,1.3191,1.318,1.3275,1.3275,1.3342,1.3343,1.3343]}]]